Other Public Products
Issued by NWS Grand Forks, ND

Home | Current Version | Previous Version | Graphics & Text | Print | Product List | Glossary On
Versions: 1 2 3 4 5 6 7 8 9 10 11 12 13 14 15 16 17 18 19 20 21 22 23 24 25 26 27 28 29 30 31 32 33 34 35 36 37 38 39 40 41 42 43 44 45 46 47 48 49 50
000
FPUS83 KFGF 230631
OPUFGF
PRAIRIE TO PINES WEATHER ROUNDUP
NATIONAL WEATHER SERVICE EASTERN NORTH DAKOTA/GRAND FORKS ND
100 AM CDT THU OCT 23 2014

 **SATELLITE DATA USED TO AUGMENT SKY COVER AT AUTOMATED STATIONS**
 *****  WEATHER ACROSS EASTERN NORTH DAKOTA  *****

CITY           SKY/WX    TMP DP  RH WIND       PRES   REMARKS
GRAND FORKS    CLEAR     46  45  96 SW7       29.84S
6HR MIN TEMP:  46; 6HR MAX TEMP:  55;

GRAND FORKS AF FAIR      45  45 100 SW10      29.85S
GRAND CITY NWS   N/A     46 N/A N/A SW3         N/A
BUXTON           N/A     47  47  99 S8          N/A
DEVILS LAKE    CLOUDY    54  43  66 SW9       29.82F
6HR MIN TEMP:  54; 6HR MAX TEMP:  55;

FARGO          CLEAR     51  48  89 SW10      29.89S
6HR MIN TEMP:  49; 6HR MAX TEMP:  56;

WAHPETON ARPT  PTCLDY    46  45  93 S6        29.92F
$$

 *****  WEATHER ACROSS CENTRAL AND WESTERN NORTH DAKOTA  *****

CITY           SKY/WX    TMP DP  RH WIND       PRES   REMARKS
JAMESTOWN      CLEAR     44  39  82 SW7       29.89S
6HR MIN TEMP:  40; 6HR MAX TEMP:  53;

BISMARCK       CLEAR     43  34  70 SW5       29.92S
6HR MIN TEMP:  39; 6HR MAX TEMP:  60;

MINOT          CLEAR     50  36  58 SW13      29.83S
6HR MIN TEMP:  50; 6HR MAX TEMP:  58;

MINOT AFB      CLEAR     46  39  76 W9        29.82F
6HR MIN TEMP:  46; 6HR MAX TEMP:  56;

GARRISON         N/A     45  38  76 W10       29.87S
6HR MIN TEMP:  41; 6HR MAX TEMP:  58;

WILLISTON      CLEAR     40  31  70 CALM      29.86F
6HR MIN TEMP:  40; 6HR MAX TEMP:  57;

DICKINSON      CLEAR     42  30  62 W5        29.91F
6HR MIN TEMP:  41; 6HR MAX TEMP:  50;

HETTINGER      CLEAR     32  27  81 CALM      29.97S
6HR MIN TEMP:  30; 6HR MAX TEMP:  50;

$$

 *****  OTHER OBSERVATIONS NORTHEAST NORTH DAKOTA  *****

CITY           SKY/WX    TMP DP  RH WIND       PRES   REMARKS
WALHALLA         N/A     54  50  87 W8        29.78S
LANGDON        FAIR      46  43  87 SW13      29.80S
CAVALIER       FAIR      48  45  87 S7        29.80S
GRAFTON        NOT AVBL
CANDO          MOCLDY    48  43  81 SW8       29.83S
FORT TOTTEN      N/A     53  44  70 SW6       29.95S
ROLLA          FAIR      45  43  93 SW7       29.81S
RUGBY          FAIR      50  43  76 SW10      29.82F
 ***** THE ABOVE OBSERVATIONS ARE NON NWS ARE NOT QUALITY
        CONTROLLED AND MAY MIS-REPORT RAIN FOR SNOW...
$$

 *****  OTHER OBSERVATIONS SOUTHEAST NORTH DAKOTA *****

CITY           SKY/WX    TMP DP  RH WIND       PRES   REMARKS
COOPERSTOWN    NOT AVBL
VALLEY CITY    FAIR      45  45 100 SW3       29.89S
OAKES            N/A     41  41 100 S6        29.92S
GWINNER        CLEAR     48  48 100 SW10      29.93S
BUFFALO          N/A     46  44  93 SW7         N/A
WYNDMERE         N/A     52  50  93 SW9         N/A
 ***** THE ABOVE OBSERVATIONS ARE NON NWS ARE NOT QUALITY
       CONTROLLED AND MAY MIS-REPORT RAIN FOR SNOW...
$$

  *****  WEATHER ACROSS NORTHERN MINNESOTA  *****

CITY           SKY/WX    TMP DP  RH WIND       PRES   REMARKS
FLAG ISLAND    CLOUDY    50  48  93 S13       29.81S
WARROAD        CLOUDY    54  48  82 S6        29.83S
ROSEAU         CLOUDY    52  46  82 S12       29.82S
HALLOCK        CLOUDY    52  48  87 SW9       29.80S
THF RVR FALLS  PTCLDY    50  48  93 S8        29.85F
6HR MIN TEMP:  52; 6HR MAX TEMP:  57; 6HR PCP:  0.03;

HALSTAD          N/A     48  46  93 SW9         N/A
FOSSTON        CLOUDY    48  48 100 S9        29.89S FOG
BAUDETTE       CLOUDY    53  46  77 S12       29.86F
6HR MIN TEMP:  53; 6HR MAX TEMP:  58; 6HR PCP: TRACE;

WASKISH        CLOUDY    52  48  87 CALM      29.88F
CROOKSTON      CLEAR     48  46  93 SW10      29.86F
$$
  *****  WEATHER ACROSS CENTRAL AND WEST MINNESOTA  *****

CITY           SKY/WX    TMP DP  RH WIND       PRES   REMARKS
BEMIDJI        CLOUDY    51  49  93 S8        29.90S
PARK RAPIDS    CLOUDY    51  51 100 S7        29.92S FOG
6HR MIN TEMP:  51; 6HR MAX TEMP:  57; 6HR PCP:  0.05;

WADENA         LGT RAIN  52  52 100 CALM      29.93R
DETROIT LAKES  MOCLDY    52  50  93 SW6       29.93S FOG
MOORHEAD       CLEAR     50  50 100 S7        29.91S
FERGUS FALLS   FOG       48  46  93 S5        29.94S VSB 1/4
ELBOW LAKE     FOG       48  48 100 S7        29.94R VSB 1/4
6HR MIN TEMP:  50; 6HR MAX TEMP:  56; 6HR PCP:  0.03;

MORRIS MN      PTCLDY    52  50  93 S5        29.95R FOG
STAPLES        CLOUDY    52  50  93 S6        29.94S FOG
WHEATON        CLEAR     46  45  93 S6        29.95S
$$
  *****  WEATHER ELSEWHERE ACROSS MINNESOTA  *****

CITY           SKY/WX    TMP DP  RH WIND       PRES   REMARKS
DULUTH         PTCLDY    51  36  56 S13       29.99F
6HR MIN TEMP:  49; 6HR MAX TEMP:  53;

INTRNTL FALLS  LGT RAIN  51  43  74 S9        29.90F
6HR MIN TEMP:  51; 6HR MAX TEMP:  56; 6HR PCP: TRACE;

ELY            PTCLDY    46  34  61 S7        29.97F
CLOQUET        MOCLDY    52  37  58 S8        29.98F
BRAINERD       RAIN      50  47  89 S8        29.95F FOG
6HR MIN TEMP:  50; 6HR MAX TEMP:  54; 6HR PCP:  0.01;

HIBBING        LGT RAIN  51  38  60 S6        29.96F
6HR MIN TEMP:  50; 6HR MAX TEMP:  54; 6HR PCP: TRACE;

ALEXANDRIA     CLOUDY    54  54 100 SW5       29.95F FOG
6HR MIN TEMP:  54; 6HR MAX TEMP:  61; 6HR PCP:  0.14;

SAINT CLOUD    RAIN      53  48  83 S6        29.97F
6HR MIN TEMP:  55; 6HR MAX TEMP:  59; 6HR PCP: TRACE;

MINNEAPOLIS    CLOUDY    56  41  57 S10       30.01F
6HR MIN TEMP:  54; 6HR MAX TEMP:  57;

$$

  *****  WEATHER ACROSS SOUTH DAKOTA  *****

CITY           SKY/WX    TMP DP  RH WIND       PRES   REMARKS
SIOUX FALLS    FOG       51  51 100 W3        30.02R VSB 1/4
6HR MIN TEMP:  48; 6HR MAX TEMP:  59;

BROOKINGS      NOT AVBL
WATERTOWN      CLEAR     44  43  96 S7        29.98R
6HR MIN TEMP:  44; 6HR MAX TEMP:  55;

HURON          CLEAR     46  44  93 S6        29.98S
6HR MIN TEMP:  46; 6HR MAX TEMP:  56;

SISSETON         N/A     53  50  89 W14       29.92S
ABERDEEN       CLEAR     39  38  96 SW6       29.96S
6HR MIN TEMP:  39; 6HR MAX TEMP:  53;

MITCHELL       CLEAR     49  48  97 S3        30.01S
PIERRE         CLEAR     45  36  70 SW8       29.98F
6HR MIN TEMP:  45; 6HR MAX TEMP:  60;

MOBRIDGE       CLEAR     41  34  76 SE3       29.94S
RAPID CITY     CLEAR     40  32  73 W3        30.03S
6HR MIN TEMP:  35; 6HR MAX TEMP:  55;

$$

  *****  SOME WEATHER IN NEARBY STATES *****

CITY           SKY/WX    TMP DP  RH WIND       PRES   REMARKS
GLASGOW MT     CLEAR     40  30  67 S3        29.84F
6HR MIN TEMP:  40; 6HR MAX TEMP:  55;

GREAT FALLS MT CLEAR     51  32  48 S18G24    29.84F
6HR MIN TEMP:  46; 6HR MAX TEMP:  56;

CHEYENNE WY    PTCLDY    42  29  59 S7        30.17F
6HR MIN TEMP:  42; 6HR MAX TEMP:  59;

SCOTTSBLUFF NE CLEAR     36  30  79 NE3       30.10S
6HR MIN TEMP:  36; 6HR MAX TEMP:  61;

OMAHA NE       CLOUDY    63  60  90 S12       30.03F
6HR MIN TEMP:  63; 6HR MAX TEMP:  71; 6HR PCP:  1.02;

DES MOINES IA  CLOUDY    56  45  66 CALM      30.12R
6HR MIN TEMP:  56; 6HR MAX TEMP:  62;

DAVENPORT IA   PTCLDY    45  35  68 S8        30.19F
6HR MIN TEMP:  43; 6HR MAX TEMP:  51;

CHICAGO IL     CLEAR     38  35  89 CALM      30.25F
6HR MIN TEMP:  35; 6HR MAX TEMP:  46;

EAU CLAIRE WI  CLOUDY    51  40  65 S13       30.08F
6HR MIN TEMP:  51; 6HR MAX TEMP:  56; 6HR PCP:  0.03;

LA CROSSE WI   CLOUDY    53  38  56 SW8       30.14R
6HR MIN TEMP:  53; 6HR MAX TEMP:  57;

$$

  *****  SOME NATIONAL WEATHER *****

CITY           SKY/WX    TMP DP  RH WIND       PRES   REMARKS
LA GUARDIA NY  CLOUDY    53  47  79 N15G22    29.71F



USA.gov is the U.S. government's official web portal to all federal, state and local government web resources and services.